Change the Weather History Date:

Thursday, November 15, 2012

  Actual Average (KPWC) Record (KPWC)
Temperature  
Mean Temperature 27 °F -  
Max Temperature 37 °F 36 °F 62 °F (2001)
Min Temperature 15 °F 20 °F -4 °F (2014)
Degree Days  
Heating Degree Days 38    
Moisture  
Dew Point 19 °F    
Average Humidity 63    
Maximum Humidity 87    
Minimum Humidity 30    
Precipitation  
Precipitation 0.00 in - - ()
Sea Level Pressure  
Sea Level Pressure 30.25 in    
Wind  
Wind Speed 5 mph (WNW)    
Max Wind Speed 14 mph    
Max Gust Speed 20 mph    
Visibility 10 miles    
Events      
Averages and records for this station are not official NWS values.
T = Trace of Precipitation, MM = Missing Value Source: NWS Daily Summary

Daily Weather History Graph

Daily Weather History Graph

Search for Another Location

Airport or City:

Trip Planner

Search our weather history database for the weather conditions in past years. The results will help you decide how hot, cold, wet, or windy it might be!

Date:

Astronomy

Nov. 15, 2012 Rise Set
Actual Time 7:20 AM CST 4:41 PM CST
Civil Twilight 6:47 AM CST 5:14 PM CST
Nautical Twilight 6:10 AM CST 5:51 PM CST
Astronomical Twilight 5:34 AM CST 6:27 PM CST
Moon 9:22 AM CST (11/15) 6:29 PM CST (11/15)
Length of Visible Light 10h 27m
Length of Day
9h 20m
Waxing Crescent, 5% of the Moon is Illuminated
Nov 15
Waxing Crescent
Nov 20
First Quarter
Nov 28
Full
Dec 6
Last Quarter
Dec 13
New

Hourly Weather History & Observations

Time (CST) Temp. Windchill Dew Point Humidity Pressure Visibility Wind Dir Wind Speed Gust Speed Precip Events Conditions
12:16 AM 35.6 °F 32.8 °F 30.2 °F 81% 30.05 in 10.0 mi South 3.5 mph - N/A   Scattered Clouds
12:36 AM 35.6 °F - 30.2 °F 81% 30.05 in 10.0 mi Calm Calm - N/A   Overcast
12:56 AM 35.6 °F 31.7 °F 30.2 °F 81% 30.05 in 10.0 mi South 4.6 mph - N/A   Mostly Cloudy
1:16 AM 35.6 °F 32.8 °F 30.2 °F 81% 30.04 in 10.0 mi South 3.5 mph - N/A   Scattered Clouds
1:36 AM 35.6 °F 31.7 °F 30.2 °F 81% 30.04 in 10.0 mi SSW 4.6 mph - N/A   Scattered Clouds
1:56 AM 37.4 °F 32.8 °F 30.2 °F 75% 30.04 in 10.0 mi SW 5.8 mph - N/A   Mostly Cloudy
2:16 AM 37.4 °F 33.8 °F 30.2 °F 75% 30.04 in 10.0 mi SSW 4.6 mph - N/A   Overcast
2:36 AM 37.4 °F 32.8 °F 30.2 °F 75% 30.04 in 10.0 mi SSW 5.8 mph - N/A   Mostly Cloudy
2:56 AM 37.4 °F 32.8 °F 30.2 °F 75% 30.04 in 10.0 mi SSW 5.8 mph - N/A   Mostly Cloudy
3:16 AM 37.4 °F 32.8 °F 30.2 °F 75% 30.04 in 10.0 mi SW 5.8 mph - N/A   Overcast
3:36 AM 37.4 °F 33.8 °F 30.2 °F 75% 30.05 in 10.0 mi SW 4.6 mph - N/A   Mostly Cloudy
3:56 AM 37.4 °F 33.8 °F 30.2 °F 75% 30.05 in 10.0 mi SW 4.6 mph - N/A   Overcast
4:16 AM 35.6 °F 30.7 °F 30.2 °F 81% 30.04 in 10.0 mi SW 5.8 mph - N/A   Overcast
4:36 AM 37.4 °F 32.8 °F 30.2 °F 75% 30.05 in 10.0 mi WSW 5.8 mph - N/A   Mostly Cloudy
4:56 AM 37.4 °F 34.9 °F 30.2 °F 75% 30.05 in 10.0 mi West 3.5 mph - N/A   Mostly Cloudy
5:16 AM 35.6 °F 31.7 °F 30.2 °F 81% 30.06 in 10.0 mi West 4.6 mph - N/A   Scattered Clouds
5:36 AM 35.6 °F 32.8 °F 30.2 °F 81% 30.07 in 10.0 mi WSW 3.5 mph - N/A   Clear
5:56 AM 33.8 °F 29.6 °F 30.2 °F 87% 30.07 in 10.0 mi WSW 4.6 mph - N/A   Clear
6:16 AM 32.0 °F 28.7 °F 28.4 °F 87% 30.08 in 10.0 mi West 3.5 mph - N/A   Clear
6:36 AM 32.0 °F 28.7 °F 28.4 °F 87% 30.10 in 10.0 mi West 3.5 mph - N/A   Clear
6:56 AM 33.8 °F 28.6 °F 30.2 °F 87% 30.11 in 10.0 mi WNW 5.8 mph - N/A   Clear
7:16 AM 33.8 °F 26.4 °F 30.2 °F 87% 30.13 in 10.0 mi WNW 9.2 mph - N/A   Clear
7:36 AM 33.8 °F 27.7 °F 30.2 °F 87% 30.14 in 10.0 mi WNW 6.9 mph - N/A   Clear
7:56 AM 32.0 °F 25.6 °F 28.4 °F 87% 30.15 in 10.0 mi WNW 6.9 mph - N/A   Clear
8:16 AM 32.0 °F 26.4 °F 28.4 °F 87% 30.17 in 10.0 mi NW 5.8 mph - N/A   Clear
8:36 AM 32.0 °F 23.0 °F 28.4 °F 87% 30.19 in 10.0 mi NW 11.5 mph 16.1 mph N/A   Scattered Clouds
8:56 AM 32.0 °F 25.6 °F 28.4 °F 87% 30.19 in 10.0 mi NW 6.9 mph - N/A   Scattered Clouds
9:16 AM 33.8 °F 27.7 °F 28.4 °F 81% 30.21 in 10.0 mi NW 6.9 mph - N/A   Scattered Clouds
9:36 AM 33.8 °F 27.0 °F 26.6 °F 75% 30.22 in 10.0 mi WNW 8.1 mph - N/A   Clear
9:56 AM 33.8 °F 28.6 °F 26.6 °F 75% 30.23 in 10.0 mi WNW 5.8 mph - N/A   Clear
10:16 AM 35.6 °F 30.7 °F 26.6 °F 70% 30.24 in 10.0 mi NNW 5.8 mph - N/A   Clear
10:36 AM 35.6 °F 32.8 °F 24.8 °F 65% 30.25 in 10.0 mi NW 3.5 mph - N/A   Clear
10:56 AM 35.6 °F 28.6 °F 21.2 °F 56% 30.27 in 10.0 mi NW 9.2 mph - N/A   Clear
11:16 AM 35.6 °F 29.2 °F 17.6 °F 48% 30.27 in 10.0 mi NW 8.1 mph 18.4 mph N/A   Clear
11:36 AM 35.6 °F 29.2 °F 15.8 °F 44% 30.27 in 10.0 mi NNW 8.1 mph 16.1 mph N/A   Clear
11:56 AM 35.6 °F 30.7 °F 14.0 °F 41% 30.28 in 10.0 mi NW 5.8 mph 16.1 mph N/A   Clear
12:16 PM 35.6 °F 26.6 °F 10.4 °F 35% 30.29 in 10.0 mi WNW 13.8 mph 18.4 mph N/A   Clear
12:36 PM 35.6 °F 28.0 °F 6.8 °F 30% 30.29 in 10.0 mi NW 10.4 mph 18.4 mph N/A   Clear
12:56 PM 37.4 °F 31.4 °F 10.4 °F 33% 30.30 in 10.0 mi NNW 8.1 mph - N/A   Clear
1:16 PM 35.6 °F 27.1 °F 8.6 °F 33% 30.31 in 10.0 mi NNW 12.7 mph 19.6 mph N/A   Clear
1:36 PM 35.6 °F 28.6 °F 8.6 °F 33% 30.31 in 10.0 mi NW 9.2 mph - N/A   Clear
1:56 PM 35.6 °F 31.7 °F 6.8 °F 30% 30.31 in 10.0 mi NW 4.6 mph 17.3 mph N/A   Clear
2:16 PM 35.6 °F 28.6 °F 6.8 °F 30% 30.32 in 10.0 mi NW 9.2 mph - N/A   Clear
2:36 PM 35.6 °F 28.6 °F 8.6 °F 33% 30.32 in 10.0 mi NW 9.2 mph - N/A   Clear
2:56 PM 35.6 °F 29.2 °F 8.6 °F 33% 30.33 in 10.0 mi NNW 8.1 mph - N/A   Clear
3:16 PM 35.6 °F 29.9 °F 6.8 °F 30% 30.34 in 10.0 mi NW 6.9 mph - N/A   Clear
3:36 PM 33.8 °F 29.6 °F 6.8 °F 32% 30.35 in 10.0 mi NW 4.6 mph - N/A   Clear
3:56 PM 33.8 °F 29.6 °F 6.8 °F 32% 30.36 in 10.0 mi NW 4.6 mph - N/A   Clear
4:16 PM 32.0 °F 27.5 °F 6.8 °F 35% 30.36 in 10.0 mi NNW 4.6 mph - N/A   Clear
4:36 PM 30.2 °F 25.4 °F 6.8 °F 37% 30.37 in 10.0 mi NNW 4.6 mph - N/A   Clear
4:56 PM 30.2 °F 26.7 °F 6.8 °F 37% 30.38 in 10.0 mi NW 3.5 mph - N/A   Clear
5:16 PM 28.4 °F 24.6 °F 6.8 °F 40% 30.38 in 10.0 mi North 3.5 mph - N/A   Clear
5:36 PM 28.4 °F - 8.6 °F 43% 30.39 in 10.0 mi Calm Calm - N/A   Clear
5:56 PM 28.4 °F - 10.4 °F 47% 30.39 in 10.0 mi Calm Calm - N/A   Clear
6:16 PM 26.6 °F 22.6 °F 10.4 °F 51% 30.41 in 10.0 mi NNW 3.5 mph - N/A   Clear
6:36 PM 26.6 °F - 10.4 °F 51% 30.41 in 10.0 mi Calm Calm - N/A   Clear
6:56 PM 26.6 °F - 10.4 °F 51% 30.41 in 10.0 mi Calm Calm - N/A   Clear
7:36 PM 26.6 °F 21.2 °F 10.4 °F 51% 30.42 in 10.0 mi North 4.6 mph - N/A   Clear
7:56 PM 24.8 °F - 10.4 °F 54% 30.42 in 10.0 mi Calm Calm - N/A   Clear
8:16 PM 24.8 °F - 10.4 °F 54% 30.42 in 10.0 mi Calm Calm - N/A   Clear
8:36 PM 24.8 °F 20.5 °F 10.4 °F 54% 30.42 in 10.0 mi North 3.5 mph - N/A   Clear
8:56 PM 24.8 °F - 10.4 °F 54% 30.43 in 10.0 mi Calm Calm - N/A   Clear
9:16 PM 24.8 °F - 10.4 °F 54% 30.43 in 10.0 mi Calm Calm - N/A   Clear
9:36 PM 21.2 °F - 10.4 °F 63% 30.43 in 10.0 mi Calm Calm - N/A   Clear
9:56 PM 21.2 °F - 12.2 °F 68% 30.44 in 10.0 mi Calm Calm - N/A   Clear
10:16 PM 19.4 °F - 12.2 °F 74% 30.44 in 10.0 mi Calm Calm - N/A   Clear
10:36 PM 19.4 °F - 12.2 °F 74% 30.45 in 10.0 mi Calm Calm - N/A   Clear
10:56 PM 17.6 °F - 12.2 °F 79% 30.44 in 10.0 mi Calm Calm - N/A   Clear
11:16 PM 17.6 °F - 12.2 °F 79% 30.45 in 10.0 mi Calm Calm - N/A   Clear
11:36 PM 17.6 °F - 12.2 °F 79% 30.45 in 10.0 mi Calm Calm - N/A   Clear
11:56 PM 15.8 °F - 12.2 °F 86% 30.45 in 10.0 mi Calm Calm - N/A   Clear